[[{"header":{"parameterUnit":"m.s-1","parameterCategory":2,"la1":30.2991,"la2":30.254,"lo1":-89.0895,"lo2":-89.0444,"dx":0.0017,"dy":0.0017,"nx":28,"ny":28,"refTime":"2023-01-14T03:00:00:Z","depth":"0","parameterNumber":2,"parameterNumberName":"U-component_of_CURRENTS"},"data":[0,0,0,0,0,0,0,0,0,0,0,0,0,0,0,0,0,0,0,0,0,0,0,0,0,0,0,0,0,0,0,0,0,0,0,0,0,0,0,0,0,0,0,0,0,0,0,0,0,0,0,0,0,0,0,0,0,0,-0.3102,-0.3103,0,-0.3112,-0.3112,-0.3112,-0.3066,-0.3065,-0.3064,-0.3063,-0.2994,-0.2993,-0.2992,0,0,0,0,0,0,0,0,0,0,0,0,0,-0.3092,-0.3091,-0.3102,-0.3103,-0.3103,-0.3112,-0.3112,-0.3112,-0.3066,-0.3065,-0.3064,-0.3063,-0.2994,-0.2993,-0.2992,0,0,0,0,0,0,0,0,0,0,0,0,0,-0.3093,-0.3091,-0.3102,-0.3085,-0.3084,-0.3113,-0.3112,-0.3112,-0.3066,-0.3065,-0.3063,-0.3062,-0.2995,-0.2993,-0.2992,-0.3009,0,0,-0.2987,-0.2986,0,0,0,0,0,0,0,0,-0.3093,-0.3093,-0.3087,-0.3086,-0.3085,-0.3091,-0.3084,-0.3075,-0.3066,-0.3067,-0.3063,-0.3061,-0.3023,-0.302,-0.3018,-0.3005,-0.3002,-0.2987,-0.2986,-0.2985,-0.2985,0,0,0,0,0,0,0,-0.3093,-0.3093,-0.3101,-0.3088,-0.3087,-0.3095,-0.3092,-0.3082,-0.3047,-0.3067,-0.3065,-0.3075,-0.3021,-0.302,-0.3016,-0.3001,-0.2987,-0.2986,-0.2985,-0.2984,-0.2999,-0.3,0,0,0,0,0,0,-0.3101,-0.3092,-0.3101,-0.3102,-0.3092,-0.3096,-0.3093,-0.3086,-0.3049,-0.3044,-0.3076,-0.3073,-0.3023,-0.3018,-0.3013,-0.2996,-0.2985,-0.2984,-0.2983,-0.2997,-0.2999,-0.3,0,0,0,0,0,0,-0.3101,-0.3101,-0.31,-0.3103,-0.3103,-0.3098,-0.309,-0.3087,-0.308,-0.3058,-0.305,-0.3071,-0.3022,-0.3015,-0.3008,-0.2994,-0.2983,-0.2982,-0.2996,-0.2998,-0.3,-0.2983,0,0,0,0,0,0,-0.31,-0.31,-0.3088,-0.3102,-0.3104,-0.3118,-0.3092,-0.3089,-0.3091,-0.3086,-0.3051,-0.3044,-0.302,-0.3011,-0.3007,-0.2991,-0.2981,-0.2994,-0.2997,-0.2999,-0.2982,-0.2984,-0.2986,0,0,0,0,0,-0.3099,-0.3085,-0.3087,-0.3088,-0.309,-0.3119,-0.312,-0.3109,-0.3092,-0.3094,-0.3074,-0.3045,-0.3024,-0.3011,-0.3006,-0.2989,-0.2993,-0.2996,-0.2999,-0.2981,-0.2983,-0.2986,0,0,0,0,0,0,-0.3045,-0.3081,-0.3082,-0.307,-0.3098,-0.3113,-0.3108,-0.3113,-0.31,-0.3087,-0.3059,-0.3052,-0.3042,-0.3033,-0.302,-0.3008,-0.3005,-0.3007,-0.2993,-0.2995,-0.2997,-0.2931,-0.2979,0,0,0,0,0,-0.3039,-0.3045,-0.3083,-0.3068,-0.3086,-0.31,-0.3106,-0.3111,-0.3111,-0.3103,-0.3084,-0.3067,-0.3055,-0.3038,-0.3033,-0.3022,-0.2946,-0.3014,-0.3016,-0.3017,-0.2965,-0.2857,-0.2841,-0.301,-0.301,-0.301,0,0,-0.3008,-0.3031,-0.3029,-0.306,-0.3073,-0.3086,-0.3098,-0.3114,-0.3106,-0.3098,-0.3071,-0.3077,-0.306,-0.3047,-0.3041,-0.303,-0.2937,-0.3021,-0.3022,-0.2967,-0.2858,-0.284,-0.2824,-0.3012,-0.3012,-0.3011,0,0,-0.2964,-0.298,-0.2979,-0.301,-0.3052,-0.3071,-0.3081,-0.311,-0.3102,-0.3108,-0.3092,-0.3078,-0.3079,-0.3041,-0.3026,-0.3038,-0.2961,-0.3065,-0.2999,-0.2896,-0.2879,-0.2863,-0.2757,-0.2731,-0.3053,-0.3053,-0.3053,0,-0.2913,-0.2925,-0.2981,-0.2995,-0.3004,-0.3064,-0.306,-0.3074,-0.3092,-0.3054,-0.3098,-0.3045,-0.3058,-0.2978,-0.3003,-0.303,-0.2963,-0.2985,-0.289,-0.2873,-0.2856,-0.2751,-0.2723,-0.3052,-0.3052,-0.3052,-0.3052,0,-0.2883,-0.2893,-0.2896,-0.2932,-0.2954,-0.2967,-0.3011,-0.3011,-0.3026,-0.3015,-0.2968,-0.299,-0.2939,-0.2971,-0.2995,-0.2894,-0.2881,-0.291,-0.2866,-0.2836,-0.2731,-0.2701,-0.3051,-0.3052,-0.3052,-0.3052,0,0,-0.2709,-0.2851,-0.2835,-0.2854,-0.2923,-0.2929,-0.2925,-0.2907,-0.2848,-0.2885,-0.2788,-0.2818,-0.2817,-0.2802,-0.283,-0.2762,-0.2636,-0.2794,-0.2788,-0.2654,-0.239,-0.2392,-0.236,-0.2645,-0.264,-0.2636,-0.2365,0,-0.2641,-0.2692,-0.276,-0.2754,-0.2775,-0.2825,-0.2795,-0.2784,-0.2787,-0.272,-0.2712,-0.2665,-0.2758,-0.2743,-0.2688,-0.266,-0.2556,-0.2705,-0.2466,-0.2457,-0.2434,-0.2325,-0.2259,-0.2012,-0.2336,-0.2331,-0.2327,0,-0.2525,-0.2598,-0.2625,-0.2668,-0.2667,-0.2668,-0.261,-0.2604,-0.2538,-0.2521,-0.2471,-0.2484,-0.2413,-0.251,-0.2358,-0.2452,-0.24,-0.2371,-0.236,-0.233,-0.2403,-0.2095,-0.1946,-0.1936,-0.2281,-0.2285,-0.2288,0,-0.2354,-0.2443,-0.2475,-0.2501,-0.2583,-0.2555,-0.2566,-0.2519,-0.2467,-0.2398,-0.2332,-0.2269,-0.2233,-0.216,-0.2178,-0.224,-0.1995,-0.2067,-0.1986,-0.1986,-0.186,-0.1858,-0.1632,-0.1881,-0.1882,-0.1882,-0.1883,0,-0.2215,-0.2208,-0.2412,-0.2419,-0.2379,-0.2463,-0.2359,-0.2352,-0.2298,-0.22,-0.2227,-0.2137,-0.2146,-0.2058,-0.2058,-0.1932,-0.1887,-0.1907,-0.1891,-0.1862,-0.1863,-0.1798,-0.1841,-0.1872,-0.1874,-0.1876,-0.1878,0,-0.1987,-0.2133,-0.216,-0.2286,-0.2304,-0.2271,-0.2262,-0.219,-0.2163,-0.2044,-0.2018,-0.1985,-0.1889,-0.1875,-0.1757,-0.1763,-0.1619,-0.1619,-0.1596,-0.1583,-0.1527,-0.1575,-0.1299,-0.1265,-0.1438,-0.1436,-0.1435,0,-0.1894,-0.1904,-0.2043,-0.2062,-0.212,-0.2107,-0.2073,-0.2094,-0.2041,-0.195,-0.1879,-0.1785,-0.1713,-0.1545,-0.1523,-0.1424,-0.1478,-0.1313,-0.1422,-0.1445,-0.1485,-0.1536,-0.1533,-0.1242,-0.1238,-0.1236,-0.1234,0,-0.1699,-0.1752,-0.1804,-0.1874,-0.189,-0.188,-0.1872,-0.1815,-0.1826,-0.1743,-0.1657,-0.1607,-0.1473,-0.1372,-0.1288,-0.1249,-0.1292,-0.1259,-0.1252,-0.1257,-0.1317,-0.1307,-0.152,-0.1211,-0.1214,-0.1215,-0.1217,-0.1217,-0.1539,-0.1533,-0.1632,-0.1664,-0.169,-0.1689,-0.1623,-0.1638,-0.1566,-0.1471,-0.1482,-0.1364,-0.1279,-0.1159,-0.1113,-0.1024,-0.1098,-0.1013,-0.1045,-0.1077,-0.1104,-0.1281,-0.1008,-0.1009,-0.101,-0.1011,-0.1012,0,-0.1362,-0.1392,-0.142,-0.148,-0.1456,-0.1531,-0.1498,-0.1431,-0.135,-0.1308,-0.1236,-0.1112,-0.1009,-0.0953,-0.0868,-0.0826,-0.0832,-0.082,-0.0851,-0.0843,-0.0928,-0.0987,-0.0736,-0.0736,-0.0736,-0.0736,-0.0736,-0.0736,-0.128,-0.1257,-0.1299,-0.1261,-0.1285,-0.1226,-0.1196,-0.1141,-0.1087,-0.0962,-0.0885,-0.0837,-0.081,-0.0832,-0.0762,-0.0728,-0.0731,-0.07,-0.074,-0.0812,-0.0834,-0.0854,-0.0916,-0.0654,-0.0654,-0.0615,-0.0615,-0.0615]},{"header":{"parameterUnit":"m.s-1","parameterCategory":2,"la1":30.2991,"la2":30.254,"lo1":-89.0895,"lo2":-89.0444,"dx":0.0017,"dy":0.0017,"nx":28,"ny":28,"refTime":"2023-01-14T03:00:00:Z","depth":"0","parameterNumber":3,"parameterNumberName":"V-component_of_CURRENTS"},"data":[0,0,0,0,0,0,0,0,0,0,0,0,0,0,0,0,0,0,0,0,0,0,0,0,0,0,0,0,0,0,0,0,0,0,0,0,0,0,0,0,0,0,0,0,0,0,0,0,0,0,0,0,0,0,0,0,0,0,-0.0037,-0.0036,0,0.0027,0.0027,0.0028,0.0068,0.0068,0.0068,0.0068,0.0119,0.0121,0.0122,0,0,0,0,0,0,0,0,0,0,0,0,0,-0.0071,-0.0071,-0.0037,-0.0036,-0.0036,0.0026,0.0027,0.0028,0.0068,0.0068,0.0068,0.0068,0.0119,0.012,0.0122,0,0,0,0,0,0,0,0,0,0,0,0,0,-0.0037,-0.0071,-0.0037,-0.0008,-0.0005,0.0026,0.0027,0.0028,0.0068,0.0068,0.0068,0.0068,0.0119,0.012,0.0122,0.0126,0,0,0.0127,0.0128,0,0,0,0,0,0,0,0,-0.0039,-0.0036,-0.0013,-0.001,-0.0007,0.0039,0.0034,0.0061,0.0067,0.004,0.0068,0.0069,0.0091,0.0095,0.0107,0.0129,0.0131,0.0127,0.0129,0.0129,0.013,0,0,0,0,0,0,0,-0.0042,-0.0038,-0.0012,-0.0013,-0.0009,0.002,0.0024,0.004,0.0063,0.0042,0.0045,0.0052,0.0093,0.0105,0.0108,0.0132,0.0127,0.0129,0.013,0.0131,0.0178,0.0178,0,0,0,0,0,0,-0.0053,-0.0041,-0.0014,-0.001,-0.0023,0.002,0.0025,0.0024,0.0063,0.0069,0.0052,0.0054,0.0102,0.0106,0.011,0.0133,0.0129,0.0131,0.0132,0.0177,0.0178,0.0178,0,0,0,0,0,0,-0.0054,-0.0051,-0.0016,-0.0023,-0.0017,0.0019,0.0019,0.0025,0.004,0.007,0.0077,0.006,0.0102,0.0108,0.0116,0.0135,0.0132,0.0133,0.0177,0.0177,0.0178,0.0169,0,0,0,0,0,0,-0.0055,-0.0052,-0.0064,-0.0024,-0.0017,-0.0007,0.0019,0.0026,0.0043,0.0047,0.0079,0.0084,0.0103,0.0113,0.0117,0.0137,0.0135,0.0177,0.0177,0.0178,0.0169,0.0169,0.0169,0,0,0,0,0,-0.0057,-0.0075,-0.0065,-0.0062,-0.0032,-0.0007,-0.0001,0.0027,0.0043,0.0042,0.0063,0.0083,0.0119,0.0113,0.0119,0.014,0.0177,0.0177,0.0178,0.0169,0.0169,0.0169,0,0,0,0,0,0,-0.0094,-0.0072,-0.0059,-0.007,-0.0044,-0.0001,-0.0002,0.0024,0.0042,0.0044,0.0076,0.0082,0.0097,0.0115,0.0108,0.0154,0.0155,0.0157,0.0147,0.0147,0.0147,0.0176,0.0136,0,0,0,0,0,-0.0109,-0.0121,-0.0083,-0.0094,-0.0082,-0.004,-0.0028,-0.0005,0.002,0.0029,0.0051,0.0078,0.0104,0.012,0.0134,0.0156,0.0212,0.0176,0.0176,0.0176,0.0203,0.0318,0.0332,0.0179,0.0179,0.0179,0,0,-0.0127,-0.0117,-0.0123,-0.0103,-0.0081,-0.0064,-0.0033,-0.0017,0.0004,0.003,0.0049,0.0069,0.0105,0.0128,0.0139,0.0147,0.0238,0.0176,0.0176,0.0204,0.032,0.0335,0.0349,0.018,0.018,0.0179,0,0,-0.0166,-0.0158,-0.0176,-0.0156,-0.0127,-0.0091,-0.0087,-0.0045,-0.0022,-0.0007,0.0027,0.0065,0.0081,0.0134,0.0159,0.017,0.0225,0.0166,0.0203,0.0312,0.0327,0.0341,0.0389,0.0408,0.0177,0.0177,0.0177,0,-0.0189,-0.0197,-0.0177,-0.0179,-0.0147,-0.0104,-0.0085,-0.0063,-0.0025,0.0024,-0.001,0.0089,0.0095,0.0192,0.0181,0.0175,0.0226,0.0198,0.0316,0.0331,0.0345,0.0393,0.0413,0.0177,0.0177,0.0177,0.0177,0,-0.0231,-0.0231,-0.0237,-0.0217,-0.0182,-0.0166,-0.0111,-0.0071,-0.004,0.0003,0.0082,0.0099,0.0184,0.0174,0.017,0.0285,0.0281,0.0295,0.0321,0.0361,0.0406,0.0428,0.0176,0.0176,0.0176,0.0176,0,0,-0.0293,-0.027,-0.0273,-0.0231,-0.019,-0.0143,-0.0101,-0.0009,0.0076,0.008,0.0194,0.0206,0.0251,0.0283,0.0305,0.0374,0.0473,0.0369,0.0375,0.0425,0.0685,0.0562,0.0573,0.0517,0.0521,0.0525,0.0661,0,-0.0325,-0.0325,-0.0294,-0.0241,-0.0213,-0.0124,-0.0061,0.003,0.0097,0.0203,0.0258,0.0337,0.0284,0.0336,0.04,0.0464,0.0536,0.0432,0.0633,0.0638,0.0534,0.0598,0.0554,0.0663,0.0682,0.0686,0.0689,0,-0.0374,-0.0351,-0.0332,-0.0189,-0.0159,-0.0114,0.0074,0.0137,0.0284,0.0339,0.0437,0.0478,0.0576,0.0521,0.0674,0.0612,0.0653,0.0683,0.0691,0.0606,0.0558,0.0636,0.0702,0.0769,0.0722,0.0719,0.0717,0,-0.0414,-0.035,-0.0319,-0.0293,-0.0161,-0.0082,0.0024,0.0179,0.0274,0.0437,0.0502,0.0639,0.0696,0.079,0.0796,0.077,0.0947,0.0936,0.087,0.086,0.0879,0.0862,0.1049,0.1078,0.1077,0.1077,0.1077,0,-0.0456,-0.0415,-0.0329,-0.0316,-0.0185,-0.0076,0.0086,0.0205,0.037,0.0479,0.0569,0.0646,0.0766,0.085,0.0877,0.0915,0.1024,0.0899,0.0909,0.0862,0.0843,0.0944,0.0973,0.1082,0.1081,0.108,0.1079,0,-0.0518,-0.049,-0.0432,-0.0295,-0.0224,-0.0131,0.0102,0.0222,0.036,0.0501,0.0545,0.0686,0.0769,0.0852,0.1,0.0994,0.1083,0.1052,0.0941,0.0933,0.0895,0.0922,0.1106,0.1144,0.1032,0.103,0.1028,0,-0.0546,-0.0547,-0.0436,-0.0373,-0.0311,-0.0144,-0.0016,0.0185,0.0295,0.0491,0.0542,0.0663,0.0706,0.085,0.0891,0.0959,0.103,0.0969,0.0908,0.0908,0.095,0.0966,0.0988,0.0928,0.0925,0.0924,0.0922,0,-0.0581,-0.0577,-0.053,-0.0415,-0.03,-0.0148,0.0034,0.0106,0.0316,0.0396,0.049,0.0539,0.0648,0.0699,0.0781,0.0811,0.0992,0.0925,0.1019,0.0959,0.0909,0.0942,0.0778,0.0905,0.0907,0.0908,0.0909,0.091,-0.0597,-0.0586,-0.0534,-0.0407,-0.0298,-0.0173,-0.0069,0.0068,0.0185,0.0314,0.0376,0.0455,0.0572,0.0647,0.0701,0.0805,0.0829,0.0846,0.0902,0.0934,0.0912,0.0646,0.071,0.071,0.0711,0.0711,0.0711,0,-0.0576,-0.0555,-0.0478,-0.0366,-0.0273,-0.019,-0.0034,0.0041,0.0102,0.0225,0.0277,0.0421,0.0494,0.0646,0.0762,0.0818,0.0871,0.0877,0.0962,0.1004,0.087,0.0803,0.0776,0.0776,0.0776,0.0776,0.0776,0.0776,-0.0558,-0.0513,-0.0481,-0.0348,-0.0273,-0.0158,-0.0098,-0.0031,0.0071,0.0199,0.0331,0.0435,0.0638,0.0812,0.0952,0.0959,0.109,0.1025,0.113,0.1084,0.1088,0.1092,0.1039,0.1062,0.1062,0.125,0.1251,0.1253]}],[{"header":{"parameterUnit":"m.s-1","parameterCategory":2,"la1":30.2991,"la2":30.254,"lo1":-89.0895,"lo2":-89.0444,"dx":0.0017,"dy":0.0017,"nx":28,"ny":28,"refTime":"2023-01-14T03:00:00:Z","depth":"2","parameterNumber":2,"parameterNumberName":"U-component_of_CURRENTS"},"data":[0,0,0,0,0,0,0,0,0,0,0,0,0,0,0,0,0,0,0,0,0,0,0,0,0,0,0,0,0,0,0,0,0,0,0,0,0,0,0,0,0,0,0,0,0,0,0,0,0,0,0,0,0,0,0,0,0,0,-0.2823,-0.2826,0,-0.2956,-0.2956,-0.2956,-0.2935,-0.2934,-0.2933,-0.2932,-0.2865,-0.2864,-0.2863,0,0,0,0,0,0,0,0,0,0,0,0,0,-0.2631,-0.2633,-0.2823,-0.2826,-0.2829,-0.2955,-0.2956,-0.2956,-0.2935,-0.2934,-0.2933,-0.2932,-0.2866,-0.2864,-0.2863,0,0,0,0,0,0,0,0,0,0,0,0,0,-0.272,-0.2634,-0.2822,-0.2844,-0.2849,-0.2955,-0.2956,-0.2956,-0.2936,-0.2934,-0.2933,-0.2931,-0.2866,-0.2865,-0.2863,-0.2883,0,0,-0.2859,-0.2858,0,0,0,0,0,0,0,0,-0.2715,-0.2725,-0.2838,-0.2843,-0.2849,-0.294,-0.2865,-0.2927,-0.2936,-0.2887,-0.2932,-0.2931,-0.2882,-0.288,-0.289,-0.2879,-0.2877,-0.2859,-0.2858,-0.2857,-0.2857,0,0,0,0,0,0,0,-0.2709,-0.272,-0.286,-0.2842,-0.2848,-0.2877,-0.2885,-0.2877,-0.2876,-0.2891,-0.2894,-0.2932,-0.2881,-0.2891,-0.2888,-0.2876,-0.2859,-0.2858,-0.2857,-0.2856,-0.2876,-0.2877,0,0,0,0,0,0,-0.272,-0.2714,-0.2856,-0.2866,-0.2794,-0.2882,-0.2891,-0.29,-0.288,-0.2882,-0.2933,-0.2931,-0.2894,-0.2889,-0.2885,-0.287,-0.2857,-0.2856,-0.2855,-0.2875,-0.2876,-0.2878,0,0,0,0,0,0,-0.2714,-0.273,-0.2851,-0.2806,-0.2825,-0.2887,-0.2898,-0.2904,-0.2907,-0.2918,-0.2911,-0.2931,-0.2893,-0.2887,-0.2884,-0.2868,-0.2856,-0.2854,-0.2873,-0.2875,-0.2877,-0.2862,0,0,0,0,0,0,-0.2708,-0.2726,-0.2702,-0.2806,-0.2829,-0.2875,-0.2901,-0.2908,-0.2941,-0.2938,-0.2914,-0.2907,-0.2891,-0.2886,-0.2882,-0.2866,-0.2853,-0.2871,-0.2874,-0.2876,-0.2861,-0.2864,-0.2866,0,0,0,0,0,-0.27,-0.2679,-0.2698,-0.2716,-0.2804,-0.2876,-0.2886,-0.2918,-0.2942,-0.2918,-0.2938,-0.2907,-0.2899,-0.2886,-0.2882,-0.2864,-0.287,-0.2873,-0.2876,-0.286,-0.2863,-0.2866,0,0,0,0,0,0,-0.257,-0.2681,-0.2702,-0.271,-0.2774,-0.2876,-0.2867,-0.292,-0.2923,-0.2917,-0.2924,-0.2918,-0.2913,-0.2904,-0.289,-0.2884,-0.288,-0.2882,-0.2869,-0.2872,-0.2874,-0.2821,-0.2852,0,0,0,0,0,-0.2541,-0.2562,-0.2664,-0.2672,-0.2693,-0.2784,-0.2812,-0.2851,-0.2899,-0.2898,-0.291,-0.2919,-0.2927,-0.291,-0.2914,-0.2903,-0.2832,-0.2894,-0.2896,-0.2897,-0.2855,-0.2747,-0.2733,-0.2888,-0.2888,-0.2888,0,0,-0.2503,-0.2567,-0.2577,-0.2649,-0.2695,-0.2741,-0.279,-0.2835,-0.2869,-0.289,-0.2906,-0.2927,-0.2934,-0.2929,-0.2924,-0.291,-0.2824,-0.2901,-0.2902,-0.2858,-0.2748,-0.2732,-0.2718,-0.289,-0.2889,-0.2889,0,0,-0.2463,-0.2481,-0.2487,-0.2543,-0.2628,-0.2691,-0.2707,-0.2806,-0.2814,-0.2866,-0.2892,-0.2895,-0.2928,-0.2909,-0.2912,-0.2927,-0.2851,-0.295,-0.2894,-0.2791,-0.2775,-0.276,-0.2665,-0.2641,-0.2936,-0.2936,-0.2936,0,-0.2396,-0.2433,-0.2497,-0.2531,-0.2569,-0.2672,-0.2689,-0.2737,-0.283,-0.2813,-0.286,-0.288,-0.2908,-0.286,-0.2898,-0.2921,-0.2857,-0.2878,-0.2785,-0.2769,-0.2754,-0.266,-0.2634,-0.2935,-0.2935,-0.2936,-0.2936,0,-0.2381,-0.2408,-0.2416,-0.2495,-0.2534,-0.2566,-0.2661,-0.2689,-0.2747,-0.2783,-0.2759,-0.2799,-0.2788,-0.2827,-0.2884,-0.28,-0.279,-0.2807,-0.2761,-0.2736,-0.2641,-0.2614,-0.2935,-0.2935,-0.2935,-0.2935,0,0,-0.222,-0.2369,-0.2366,-0.2393,-0.251,-0.254,-0.2589,-0.2618,-0.2603,-0.267,-0.261,-0.2682,-0.2679,-0.2683,-0.2723,-0.2667,-0.2564,-0.2707,-0.2701,-0.2579,-0.2326,-0.2293,-0.226,-0.256,-0.2555,-0.2551,-0.2306,0,-0.2167,-0.2217,-0.231,-0.2348,-0.2366,-0.247,-0.25,-0.2543,-0.2567,-0.2539,-0.2539,-0.2517,-0.2628,-0.2617,-0.2579,-0.2581,-0.249,-0.2627,-0.2395,-0.2387,-0.2333,-0.2227,-0.2132,-0.1902,-0.228,-0.2275,-0.2272,0,-0.2092,-0.2142,-0.2164,-0.2258,-0.2265,-0.2312,-0.232,-0.2372,-0.2367,-0.2366,-0.2323,-0.2332,-0.229,-0.2383,-0.2274,-0.2359,-0.2331,-0.2318,-0.2308,-0.2248,-0.2302,-0.1989,-0.1839,-0.2226,-0.223,-0.2233,-0.2236,0,-0.1921,-0.2022,-0.2029,-0.2068,-0.2196,-0.2201,-0.2266,-0.2291,-0.2279,-0.2237,-0.2191,-0.2128,-0.2107,-0.2045,-0.2104,-0.216,-0.1964,-0.2019,-0.1925,-0.1923,-0.1776,-0.1769,-0.1857,-0.1857,-0.1858,-0.1858,-0.1859,0,-0.1815,-0.1818,-0.1955,-0.1963,-0.1943,-0.2083,-0.2041,-0.2091,-0.2095,-0.2043,-0.2083,-0.2005,-0.2028,-0.1962,-0.1981,-0.1875,-0.1847,-0.1854,-0.183,-0.1777,-0.1773,-0.2015,-0.2037,-0.1849,-0.1851,-0.1853,-0.1855,0,-0.1642,-0.1739,-0.1745,-0.185,-0.1873,-0.1862,-0.1941,-0.1914,-0.1955,-0.1882,-0.1863,-0.1873,-0.1807,-0.1803,-0.1715,-0.1713,-0.162,-0.1584,-0.1538,-0.1512,-0.1664,-0.1689,-0.1377,-0.1373,-0.137,-0.1367,-0.1365,0,-0.1567,-0.1559,-0.1625,-0.1617,-0.1668,-0.1691,-0.1709,-0.181,-0.1812,-0.1801,-0.176,-0.1687,-0.1606,-0.1467,-0.146,-0.1358,-0.1486,-0.1219,-0.1299,-0.1592,-0.1601,-0.1631,-0.1659,-0.1101,-0.1097,-0.1093,-0.1091,0,-0.1409,-0.143,-0.1436,-0.1426,-0.1438,-0.1447,-0.1511,-0.1478,-0.16,-0.1552,-0.1489,-0.1404,-0.1328,-0.1205,-0.1145,-0.1105,-0.1233,-0.1143,-0.1377,-0.1275,-0.1321,-0.1336,-0.1373,-0.106,-0.1063,-0.1065,-0.1067,-0.1068,-0.1264,-0.1225,-0.124,-0.1215,-0.1231,-0.1218,-0.1187,-0.1255,-0.1223,-0.1195,-0.1231,-0.1114,-0.1113,-0.0947,-0.0897,-0.0896,-0.0981,-0.0956,-0.097,-0.0987,-0.1035,-0.1077,-0.0778,-0.0779,-0.078,-0.0781,-0.0782,0,-0.1093,-0.1079,-0.1044,-0.1025,-0.0997,-0.1062,-0.1069,-0.1035,-0.0978,-0.0975,-0.0923,-0.0782,-0.0702,-0.0728,-0.0659,-0.0637,-0.067,-0.0628,-0.068,-0.071,-0.0736,-0.0777,-0.0447,-0.0447,-0.0446,-0.0445,0,0,-0.1001,-0.0921,-0.0917,-0.0815,-0.0813,-0.0751,-0.0727,-0.068,-0.0671,-0.057,-0.0549,-0.0623,-0.0645,-0.0533,-0.0518,-0.0463,-0.058,-0.044,-0.0704,-0.079,-0.0816,-0.0914,-0.1007,0,0,0,0,0]},{"header":{"parameterUnit":"m.s-1","parameterCategory":2,"la1":30.2991,"la2":30.254,"lo1":-89.0895,"lo2":-89.0444,"dx":0.0017,"dy":0.0017,"nx":28,"ny":28,"refTime":"2023-01-14T03:00:00:Z","depth":"2","parameterNumber":3,"parameterNumberName":"V-component_of_CURRENTS"},"data":[0,0,0,0,0,0,0,0,0,0,0,0,0,0,0,0,0,0,0,0,0,0,0,0,0,0,0,0,0,0,0,0,0,0,0,0,0,0,0,0,0,0,0,0,0,0,0,0,0,0,0,0,0,0,0,0,0,0,-0.0098,-0.0097,0,-0.0016,-0.0015,-0.0014,0.0019,0.0019,0.0019,0.0019,0.0076,0.0077,0.0079,0,0,0,0,0,0,0,0,0,0,0,0,0,-0.0124,-0.0124,-0.0098,-0.0097,-0.0095,-0.0016,-0.0015,-0.0014,0.0019,0.0019,0.0019,0.0019,0.0075,0.0077,0.0079,0,0,0,0,0,0,0,0,0,0,0,0,0,-0.0086,-0.0124,-0.0098,-0.0068,-0.0064,-0.0016,-0.0015,-0.0014,0.0019,0.0019,0.0019,0.0019,0.0075,0.0077,0.0079,0.0093,0,0,0.0086,0.0087,0,0,0,0,0,0,0,0,-0.0089,-0.0086,-0.0073,-0.007,-0.0066,-0.0007,-0.0003,0.0021,0.0019,-0.0014,0.0019,0.0019,0.0047,0.0052,0.0065,0.0096,0.0099,0.0086,0.0088,0.0089,0.0089,0,0,0,0,0,0,0,-0.0092,-0.0088,-0.0067,-0.0072,-0.0067,-0.0023,-0.0019,0.0002,0.0013,-0.0011,-0.0008,0.0004,0.0049,0.0063,0.0066,0.0099,0.0086,0.0088,0.009,0.0091,0.0155,0.0155,0,0,0,0,0,0,-0.0103,-0.0092,-0.007,-0.0065,-0.0075,-0.0023,-0.0019,-0.0027,0.0014,0.0021,0.0004,0.0005,0.0059,0.0064,0.0068,0.0083,0.0089,0.0091,0.0092,0.0154,0.0155,0.0155,0,0,0,0,0,0,-0.0105,-0.0103,-0.0073,-0.0073,-0.0066,-0.0023,-0.0033,-0.0026,-0.0012,0.0026,0.0032,0.001,0.0059,0.0065,0.0078,0.0085,0.0092,0.0094,0.0154,0.0155,0.0155,0.0114,0,0,0,0,0,0,-0.0106,-0.0105,-0.0122,-0.0075,-0.0067,-0.0063,-0.0032,-0.0024,-0.0003,-0.0001,0.0034,0.0039,0.0059,0.0074,0.008,0.0088,0.0096,0.0154,0.0154,0.0155,0.0115,0.0113,0.0112,0,0,0,0,0,-0.0108,-0.0133,-0.0124,-0.0121,-0.0091,-0.0064,-0.0056,-0.0025,-0.0003,-0.001,0.0019,0.0038,0.0083,0.0076,0.0083,0.0092,0.0153,0.0154,0.0155,0.0116,0.0114,0.0112,0,0,0,0,0,0,-0.0152,-0.013,-0.012,-0.0138,-0.011,-0.0058,-0.0059,-0.0027,-0.0007,-0.0005,0.0035,0.0041,0.0059,0.008,0.0071,0.0114,0.0125,0.0127,0.0093,0.0091,0.009,0.009,0.0098,0,0,0,0,0,-0.017,-0.0189,-0.015,-0.0165,-0.0154,-0.0105,-0.0089,-0.0065,-0.0034,-0.0024,0.0004,0.0037,0.0069,0.0081,0.0105,0.0122,0.0161,0.0137,0.0135,0.0133,0.0139,0.0211,0.0217,0.0158,0.0158,0.0158,0,0,-0.0188,-0.0181,-0.019,-0.0176,-0.0151,-0.014,-0.0097,-0.008,-0.0067,-0.0022,-0.0008,0.0028,0.0072,0.0091,0.0103,0.0108,0.0166,0.0134,0.0132,0.0139,0.0213,0.0219,0.0224,0.0158,0.0158,0.0158,0,0,-0.0231,-0.023,-0.0257,-0.0239,-0.0209,-0.0173,-0.0169,-0.0121,-0.0102,-0.0081,-0.0036,0.0,0.0036,0.0076,0.0102,0.0107,0.0153,0.0118,0.011,0.018,0.0185,0.0191,0.0226,0.0235,0.0118,0.0118,0.0118,0,-0.0254,-0.0281,-0.0257,-0.0269,-0.0253,-0.019,-0.0195,-0.0163,-0.0116,-0.0091,-0.0089,0.0008,0.0033,0.0094,0.0091,0.0103,0.0143,0.0111,0.0178,0.0184,0.0191,0.0225,0.0236,0.0116,0.0117,0.0117,0.0117,0,-0.0307,-0.0325,-0.0335,-0.0331,-0.0312,-0.0306,-0.0253,-0.0231,-0.0191,-0.0142,-0.0083,-0.0035,0.0033,0.0045,0.0065,0.0132,0.0143,0.0165,0.0181,0.0194,0.023,0.0241,0.0114,0.0114,0.0115,0.0115,0,0,-0.0362,-0.0372,-0.0376,-0.0382,-0.0342,-0.033,-0.0306,-0.0253,-0.021,-0.0166,-0.0106,-0.0052,0.0008,0.0042,0.009,0.014,0.02,0.0166,0.0171,0.0196,0.034,0.0259,0.0264,0.0242,0.0244,0.0246,0.0338,0,-0.0407,-0.0451,-0.0433,-0.0449,-0.0458,-0.0395,-0.0364,-0.0306,-0.0242,-0.0171,-0.0092,-0.0017,0.0001,0.0049,0.0102,0.0184,0.0233,0.0172,0.0328,0.0332,0.0255,0.0276,0.0257,0.0331,0.035,0.0352,0.0353,0,-0.0462,-0.0483,-0.0518,-0.0499,-0.0493,-0.0481,-0.0406,-0.0361,-0.024,-0.0192,-0.0096,-0.0013,0.008,0.0094,0.0236,0.02,0.0267,0.0318,0.0324,0.0274,0.0273,0.0327,0.0352,0.0373,0.0372,0.037,0.0369,0,-0.0514,-0.0537,-0.0567,-0.0565,-0.053,-0.0521,-0.0472,-0.0365,-0.0312,-0.0176,-0.0125,0.0008,0.0076,0.0187,0.0277,0.0279,0.0418,0.0441,0.0431,0.0425,0.0452,0.0443,0.055,0.055,0.055,0.0549,0.0549,0,-0.0564,-0.0589,-0.0597,-0.0612,-0.0612,-0.0558,-0.0509,-0.0441,-0.0325,-0.0256,-0.012,-0.0066,0.0105,0.0202,0.0291,0.0375,0.0436,0.0432,0.045,0.0431,0.042,0.0495,0.0488,0.0553,0.0552,0.0551,0.0551,0,-0.0611,-0.0623,-0.0656,-0.0647,-0.0641,-0.0626,-0.0549,-0.0503,-0.0386,-0.0296,-0.0252,-0.0106,0.0007,0.0151,0.0319,0.0373,0.0478,0.0494,0.0431,0.0438,0.0439,0.0428,0.0516,0.0514,0.0512,0.0511,0.051,0,-0.0639,-0.0666,-0.0686,-0.0692,-0.0691,-0.0663,-0.0636,-0.0543,-0.0499,-0.0342,-0.032,-0.0175,-0.0106,0.0089,0.0234,0.0385,0.0422,0.0444,0.0439,0.043,0.044,0.0432,0.0423,0.0466,0.0464,0.0463,0.0462,0,-0.0679,-0.0687,-0.0706,-0.072,-0.0728,-0.0719,-0.0683,-0.0681,-0.0561,-0.0491,-0.0412,-0.0337,-0.0158,-0.0004,0.0183,0.0266,0.0418,0.0419,0.0478,0.0444,0.0381,0.039,0.0385,0.0452,0.0453,0.0454,0.0454,0.0455,-0.0694,-0.0711,-0.0727,-0.0737,-0.0742,-0.0755,-0.0753,-0.0723,-0.0674,-0.0547,-0.0503,-0.0353,-0.0201,0.0056,0.0175,0.0309,0.0313,0.0382,0.0388,0.0395,0.0339,0.0273,0.0313,0.0313,0.0314,0.0314,0.0314,0,-0.0701,-0.0714,-0.0729,-0.0746,-0.0751,-0.0749,-0.0761,-0.0748,-0.0713,-0.0595,-0.0492,-0.031,-0.0135,0.0032,0.022,0.0307,0.034,0.0331,0.0381,0.0388,0.0396,0.0343,0.0318,0.0318,0.0319,0.0319,0,0,-0.0703,-0.072,-0.0731,-0.0743,-0.0748,-0.077,-0.0786,-0.0758,-0.0686,-0.0581,-0.0444,-0.028,-0.0115,0.0038,0.0152,0.0247,0.0294,0.0249,0.0231,0.0281,0.0288,0.0403,0.0326,0,0,0,0,0]}],[{"header":{"parameterUnit":"m.s-1","parameterCategory":2,"la1":30.2991,"la2":30.254,"lo1":-89.0895,"lo2":-89.0444,"dx":0.0017,"dy":0.0017,"nx":28,"ny":28,"refTime":"2023-01-14T03:00:00:Z","depth":"4","parameterNumber":2,"parameterNumberName":"U-component_of_CURRENTS"},"data":[0,0,0,0,0,0,0,0,0,0,0,0,0,0,0,0,0,0,0,0,0,0,0,0,0,0,0,0,0,0,0,0,0,0,0,0,0,0,0,0,0,0,0,0,0,0,0,0,0,0,0,0,0,0,0,0,0,0,-0.0863,-0.086,0,-0.0757,-0.0758,-0.0759,-0.0816,-0.0816,-0.0817,-0.0817,-0.0883,-0.0884,-0.0885,0,0,0,0,0,0,0,0,0,0,0,0,0,-0.0955,-0.0957,-0.0864,-0.086,-0.0856,-0.0757,-0.0758,-0.0759,-0.0815,-0.0816,-0.0817,-0.0818,-0.0882,-0.0884,-0.0885,0,0,0,0,0,0,0,0,0,0,0,0,0,-0.0913,-0.0957,-0.0864,-0.0854,-0.085,-0.0757,-0.0758,-0.0759,-0.0815,-0.0816,-0.0817,-0.0818,-0.0882,-0.0883,-0.0885,-0.0879,0,0,-0.0891,-0.0891,0,0,0,0,0,0,0,0,-0.0916,-0.0913,-0.0859,-0.0854,-0.085,-0.0778,-0.0812,-0.0799,-0.0815,-0.0855,-0.0817,-0.0818,-0.0847,-0.0851,-0.0863,-0.0882,-0.0884,-0.0891,-0.0892,-0.0893,-0.0893,0,0,0,0,0,0,0,-0.0919,-0.0917,-0.0847,-0.0855,-0.0849,-0.0798,-0.0798,-0.0811,-0.087,-0.0852,-0.0849,-0.0797,-0.0849,-0.0861,-0.0865,-0.0885,-0.0891,-0.0892,-0.0893,-0.0894,-0.1082,-0.1086,0,0,0,0,0,0,-0.0889,-0.0921,-0.085,-0.0841,-0.0857,-0.0794,-0.0795,-0.0821,-0.0866,-0.0865,-0.0797,-0.08,-0.0857,-0.0862,-0.0867,-0.1007,-0.0893,-0.0894,-0.0895,-0.1078,-0.1083,-0.1087,0,0,0,0,0,0,-0.0894,-0.0888,-0.0853,-0.0853,-0.0842,-0.0791,-0.082,-0.0818,-0.0845,-0.0817,-0.0826,-0.0824,-0.0858,-0.0865,-0.0938,-0.1004,-0.0895,-0.0897,-0.1073,-0.108,-0.1085,-0.1194,0,0,0,0,0,0,-0.0898,-0.0892,-0.0946,-0.0854,-0.084,-0.0876,-0.0816,-0.0814,-0.0797,-0.0803,-0.0843,-0.0849,-0.0859,-0.0936,-0.094,-0.1005,-0.0898,-0.1068,-0.1076,-0.1083,-0.1185,-0.1203,-0.1218,0,0,0,0,0,-0.0904,-0.0955,-0.0953,-0.0943,-0.0906,-0.0877,-0.0873,-0.0849,-0.0798,-0.0868,-0.0874,-0.0849,-0.0986,-0.094,-0.0944,-0.1011,-0.1065,-0.1074,-0.1083,-0.1178,-0.1199,-0.1217,0,0,0,0,0,0,-0.1038,-0.0959,-0.0956,-0.0991,-0.0969,-0.0879,-0.0908,-0.0855,-0.0907,-0.0919,-0.0887,-0.0898,-0.0957,-0.0987,-0.0936,-0.1092,-0.1025,-0.1035,-0.1097,-0.1116,-0.1132,-0.1154,-0.09,0,0,0,0,0,-0.1081,-0.1093,-0.103,-0.1057,-0.1059,-0.0985,-0.097,-0.0953,-0.0937,-0.096,-0.0996,-0.1019,-0.0993,-0.1059,-0.1062,-0.1173,-0.1105,-0.1225,-0.1241,-0.1255,-0.128,-0.1237,-0.125,-0.1116,-0.1116,-0.1116,0,0,-0.111,-0.108,-0.1078,-0.1083,-0.1063,-0.1051,-0.0991,-0.0993,-0.0982,-0.0958,-0.1045,-0.1047,-0.1015,-0.1113,-0.1153,-0.1165,-0.125,-0.1266,-0.1277,-0.1295,-0.1248,-0.126,-0.1271,-0.1122,-0.1121,-0.112,0,0,-0.114,-0.1189,-0.12,-0.1195,-0.1168,-0.1134,-0.1133,-0.1119,-0.1147,-0.1194,-0.1141,-0.1217,-0.1248,-0.1278,-0.1257,-0.1375,-0.1279,-0.1386,-0.1555,-0.1514,-0.1523,-0.1531,-0.1412,-0.1408,-0.1465,-0.1466,-0.1466,0,-0.119,-0.1196,-0.1203,-0.1211,-0.119,-0.1162,-0.1165,-0.117,-0.1194,-0.1236,-0.1253,-0.1298,-0.131,-0.1337,-0.1419,-0.1408,-0.1342,-0.1471,-0.1529,-0.1536,-0.1542,-0.1419,-0.1413,-0.1472,-0.1471,-0.147,-0.147,0,-0.1196,-0.1221,-0.1232,-0.1229,-0.1245,-0.125,-0.1233,-0.1308,-0.1322,-0.1334,-0.1421,-0.1468,-0.1511,-0.1539,-0.1519,-0.1594,-0.151,-0.1486,-0.1465,-0.1561,-0.1426,-0.1417,-0.1481,-0.1479,-0.1477,-0.1475,0,0,-0.1237,-0.1234,-0.1242,-0.1228,-0.1258,-0.1241,-0.1294,-0.133,-0.1313,-0.1471,-0.1479,-0.1587,-0.1666,-0.1656,-0.1673,-0.173,-0.1718,-0.1687,-0.1682,-0.1544,-0.1569,-0.152,-0.1504,-0.1702,-0.1703,-0.1704,-0.1437,0,-0.1241,-0.1235,-0.1251,-0.1236,-0.1228,-0.1262,-0.1279,-0.1328,-0.1377,-0.1419,-0.1534,-0.1544,-0.1675,-0.1698,-0.1789,-0.1691,-0.1713,-0.1789,-0.1523,-0.1514,-0.1438,-0.1502,-0.1706,-0.143,-0.1428,-0.1427,-0.1426,0,-0.1236,-0.1225,-0.1229,-0.1202,-0.1209,-0.1206,-0.1235,-0.1247,-0.1322,-0.139,-0.153,-0.1547,-0.168,-0.172,-0.1737,-0.1779,-0.1712,-0.1663,-0.1649,-0.1571,-0.1455,-0.1332,-0.141,-0.1411,-0.1412,-0.1413,-0.1414,0,-0.1206,-0.1199,-0.1194,-0.1189,-0.1178,-0.12,-0.1203,-0.1269,-0.1278,-0.1365,-0.1378,-0.1528,-0.1541,-0.1573,-0.1595,-0.1635,-0.152,-0.1514,-0.1392,-0.1381,-0.1446,-0.1442,-0.1476,-0.1476,-0.1477,-0.1478,-0.1479,0,-0.1174,-0.1154,-0.1165,-0.1145,-0.1113,-0.1148,-0.1135,-0.1176,-0.1218,-0.1232,-0.1363,-0.1376,-0.1513,-0.1486,-0.1515,-0.1451,-0.1454,-0.1419,-0.1337,-0.1493,-0.1497,-0.1435,-0.1434,-0.1468,-0.147,-0.1472,-0.1474,0,-0.1111,-0.1133,-0.1096,-0.1097,-0.1089,-0.1065,-0.1064,-0.1045,-0.1114,-0.1111,-0.1139,-0.1231,-0.124,-0.1294,-0.1262,-0.1294,-0.124,-0.119,-0.1302,-0.1227,-0.1124,-0.1133,-0.1003,-0.0999,-0.0997,-0.0994,-0.0992,0,-0.1057,-0.1046,-0.1042,-0.1014,-0.1007,-0.0981,-0.096,-0.1013,-0.1006,-0.1034,-0.1014,-0.1012,-0.1087,-0.0973,-0.1084,-0.1054,-0.1082,-0.1002,-0.1173,-0.1157,-0.1088,-0.1101,-0.1113,-0.0988,-0.0987,-0.0986,-0.0986,0,-0.0943,-0.0978,-0.0947,-0.0911,-0.088,-0.0838,-0.0818,-0.0806,-0.0871,-0.0903,-0.0885,-0.0895,-0.0858,-0.0921,-0.0889,-0.0901,-0.1055,-0.0973,-0.0981,-0.1141,-0.1137,-0.1075,-0.109,-0.0976,-0.0977,-0.0978,-0.0979,0,-0.0852,-0.0819,-0.0819,-0.0762,-0.0737,-0.071,-0.0718,-0.07,-0.0699,-0.0758,-0.0748,-0.0782,-0.0835,-0.083,-0.0826,-0.0828,-0.0847,-0.0852,-0.0866,-0.0877,-0.0988,-0.0974,-0.0697,0,0,0,0,0,-0.0745,-0.0705,-0.0659,-0.0612,-0.0604,-0.0598,-0.0616,-0.0649,-0.0703,-0.0662,-0.0714,-0.0703,-0.0721,-0.0742,-0.0725,-0.0788,-0.0854,-0.0766,-0.0867,-0.0922,-0.0933,-0.1091,0,0,0,0,0,0,-0.067,-0.0634,-0.0616,-0.0505,-0.0466,-0.0449,-0.0477,-0.0529,-0.0522,-0.0591,-0.0597,-0.0649,-0.0667,-0.0702,-0.0698,-0.0708,-0.076,-0.0795,-0.0793,-0.0916,-0.0926,-0.0935,-0.1101,0,0,0,0,0]},{"header":{"parameterUnit":"m.s-1","parameterCategory":2,"la1":30.2991,"la2":30.254,"lo1":-89.0895,"lo2":-89.0444,"dx":0.0017,"dy":0.0017,"nx":28,"ny":28,"refTime":"2023-01-14T03:00:00:Z","depth":"4","parameterNumber":3,"parameterNumberName":"V-component_of_CURRENTS"},"data":[0,0,0,0,0,0,0,0,0,0,0,0,0,0,0,0,0,0,0,0,0,0,0,0,0,0,0,0,0,0,0,0,0,0,0,0,0,0,0,0,0,0,0,0,0,0,0,0,0,0,0,0,0,0,0,0,0,0,-0.0248,-0.025,0,-0.0303,-0.0303,-0.0303,-0.0292,-0.0292,-0.0292,-0.0292,-0.03,-0.03,-0.03,0,0,0,0,0,0,0,0,0,0,0,0,0,-0.0147,-0.0148,-0.0248,-0.025,-0.0251,-0.0303,-0.0303,-0.0303,-0.0292,-0.0292,-0.0292,-0.0292,-0.0299,-0.03,-0.03,0,0,0,0,0,0,0,0,0,0,0,0,0,-0.0186,-0.0149,-0.0248,-0.026,-0.0262,-0.0303,-0.0303,-0.0303,-0.0292,-0.0292,-0.0292,-0.0292,-0.0299,-0.03,-0.03,-0.0304,0,0,-0.0301,-0.0301,0,0,0,0,0,0,0,0,-0.0184,-0.0188,-0.0256,-0.0259,-0.0262,-0.03,-0.0271,-0.0304,-0.0292,-0.027,-0.0292,-0.0291,-0.0302,-0.0302,-0.0299,-0.0305,-0.0305,-0.0301,-0.0302,-0.0302,-0.0302,0,0,0,0,0,0,0,-0.0181,-0.0186,-0.0259,-0.0258,-0.0262,-0.0268,-0.0272,-0.0277,-0.0277,-0.0272,-0.0274,-0.0296,-0.0302,-0.0298,-0.0299,-0.0305,-0.0301,-0.0302,-0.0302,-0.0302,-0.0338,-0.0339,0,0,0,0,0,0,-0.0194,-0.0183,-0.0258,-0.0262,-0.0233,-0.027,-0.0274,-0.0279,-0.0278,-0.0281,-0.0296,-0.0296,-0.0298,-0.0298,-0.0299,-0.0332,-0.0302,-0.0302,-0.0302,-0.0337,-0.0338,-0.0339,0,0,0,0,0,0,-0.0192,-0.02,-0.0256,-0.0233,-0.0242,-0.0273,-0.0278,-0.0281,-0.0279,-0.0299,-0.0299,-0.0294,-0.0298,-0.0299,-0.0311,-0.0332,-0.0302,-0.0303,-0.0337,-0.0338,-0.0339,-0.0381,0,0,0,0,0,0,-0.0188,-0.0198,-0.0206,-0.0234,-0.0244,-0.0281,-0.0279,-0.0282,-0.0298,-0.0297,-0.0297,-0.0297,-0.0298,-0.031,-0.0311,-0.0332,-0.0303,-0.0336,-0.0337,-0.0338,-0.0378,-0.0383,-0.0387,0,0,0,0,0,-0.0184,-0.0195,-0.0205,-0.0216,-0.0254,-0.0282,-0.0286,-0.0302,-0.0298,-0.0297,-0.0303,-0.0297,-0.032,-0.0311,-0.0312,-0.0333,-0.0335,-0.0337,-0.0338,-0.0377,-0.0382,-0.0387,0,0,0,0,0,0,-0.0159,-0.0197,-0.0208,-0.0232,-0.0258,-0.0284,-0.0294,-0.0302,-0.0304,-0.0299,-0.0305,-0.0307,-0.034,-0.0321,-0.0312,-0.0347,-0.0327,-0.0329,-0.0356,-0.0361,-0.0365,-0.0368,-0.0303,0,0,0,0,0,-0.016,-0.0177,-0.0213,-0.0235,-0.0243,-0.0265,-0.028,-0.0288,-0.0301,-0.0301,-0.0306,-0.0314,-0.0346,-0.034,-0.0363,-0.0364,-0.0363,-0.0378,-0.0382,-0.0386,-0.0389,-0.0449,-0.046,-0.0344,-0.0344,-0.0344,0,0,-0.0164,-0.0187,-0.02,-0.0232,-0.0247,-0.0275,-0.027,-0.0287,-0.0322,-0.0302,-0.0332,-0.0341,-0.0357,-0.0381,-0.039,-0.0363,-0.0406,-0.0388,-0.0391,-0.0392,-0.0452,-0.0464,-0.0474,-0.0346,-0.0345,-0.0345,0,0,-0.0187,-0.0188,-0.0214,-0.0229,-0.0262,-0.0276,-0.0283,-0.0302,-0.0316,-0.0338,-0.0359,-0.038,-0.0384,-0.042,-0.0436,-0.0473,-0.0449,-0.0463,-0.0463,-0.0522,-0.0532,-0.0542,-0.0503,-0.0509,-0.0439,-0.0439,-0.0439,0,-0.0194,-0.0229,-0.0227,-0.0252,-0.0282,-0.028,-0.0317,-0.0331,-0.0357,-0.0384,-0.0348,-0.0404,-0.0416,-0.0484,-0.0487,-0.0488,-0.0473,-0.0443,-0.053,-0.0539,-0.0548,-0.0507,-0.0513,-0.0442,-0.0441,-0.0441,-0.0441,0,-0.0238,-0.0265,-0.0275,-0.0313,-0.0333,-0.0358,-0.0386,-0.0407,-0.041,-0.0427,-0.0476,-0.0476,-0.0511,-0.0512,-0.0502,-0.0571,-0.0522,-0.0552,-0.0519,-0.0563,-0.0515,-0.052,-0.0445,-0.0444,-0.0443,-0.0443,0,0,-0.0273,-0.0305,-0.0313,-0.0343,-0.0367,-0.0394,-0.0446,-0.0505,-0.0552,-0.0535,-0.0595,-0.0616,-0.0595,-0.0612,-0.0606,-0.0617,-0.0649,-0.0585,-0.0587,-0.0548,-0.0697,-0.0565,-0.0557,-0.069,-0.0693,-0.0695,-0.0619,0,-0.0321,-0.038,-0.0388,-0.0455,-0.0486,-0.0501,-0.0552,-0.0595,-0.0616,-0.0662,-0.0659,-0.071,-0.0643,-0.0659,-0.0661,-0.0687,-0.0672,-0.0661,-0.0659,-0.0657,-0.054,-0.0565,-0.0703,-0.0623,-0.0624,-0.0625,-0.0626,0,-0.0375,-0.041,-0.0478,-0.0536,-0.0551,-0.059,-0.0676,-0.0722,-0.0778,-0.0791,-0.0807,-0.0806,-0.0832,-0.0775,-0.0779,-0.0767,-0.0727,-0.0706,-0.0704,-0.0576,-0.0538,-0.0584,-0.0635,-0.0635,-0.0634,-0.0633,-0.0633,0,-0.0415,-0.048,-0.0541,-0.0557,-0.0613,-0.0662,-0.0703,-0.0762,-0.0803,-0.0889,-0.0897,-0.0929,-0.093,-0.0922,-0.0821,-0.0831,-0.0783,-0.0822,-0.0645,-0.0631,-0.0754,-0.0746,-0.0827,-0.0827,-0.0827,-0.0827,-0.0828,0,-0.0465,-0.0516,-0.0564,-0.0594,-0.0672,-0.07,-0.0784,-0.0836,-0.0889,-0.0914,-0.0957,-0.0946,-0.0968,-0.0917,-0.0856,-0.072,-0.0817,-0.0638,-0.0623,-0.0762,-0.0756,-0.0754,-0.0746,-0.0825,-0.0825,-0.0826,-0.0826,0,-0.0492,-0.0526,-0.0594,-0.0662,-0.0689,-0.0743,-0.0811,-0.0859,-0.0911,-0.0947,-0.0975,-0.0979,-0.0914,-0.0855,-0.0824,-0.074,-0.0667,-0.0587,-0.0655,-0.0646,-0.0463,-0.0459,-0.0443,-0.0438,-0.0434,-0.0431,-0.0428,0,-0.0511,-0.0548,-0.0627,-0.0662,-0.0695,-0.0769,-0.0809,-0.0874,-0.0903,-0.0922,-0.0922,-0.0886,-0.0858,-0.0678,-0.0649,-0.0527,-0.0495,-0.0457,-0.0534,-0.0447,-0.0434,-0.0436,-0.0437,-0.0421,-0.042,-0.0419,-0.0418,0,-0.0539,-0.0565,-0.061,-0.0673,-0.0726,-0.0784,-0.0838,-0.0849,-0.0892,-0.0929,-0.0853,-0.0787,-0.0677,-0.0606,-0.0481,-0.0402,-0.0514,-0.0415,-0.0425,-0.0497,-0.042,-0.0412,-0.0418,-0.0404,-0.0406,-0.0407,-0.0408,0,-0.0548,-0.0578,-0.0625,-0.068,-0.0739,-0.0774,-0.081,-0.0808,-0.0831,-0.083,-0.0783,-0.0702,-0.0678,-0.053,-0.0421,-0.0329,-0.0337,-0.0343,-0.0358,-0.0373,-0.0376,-0.027,-0.0191,0,0,0,0,0,-0.0552,-0.0577,-0.0624,-0.0684,-0.0735,-0.0769,-0.0813,-0.0835,-0.0849,-0.0777,-0.0779,-0.0665,-0.0506,-0.046,-0.0342,-0.0372,-0.0339,-0.0233,-0.0359,-0.0325,-0.0341,-0.0346,0,0,0,0,0,0,-0.0555,-0.0598,-0.0616,-0.0666,-0.0699,-0.0757,-0.0781,-0.0793,-0.0752,-0.0745,-0.0658,-0.0628,-0.0482,-0.0562,-0.0335,-0.0312,-0.0373,-0.0173,-0.017,-0.0316,-0.0331,-0.0344,-0.0355,0,0,0,0,0]}]]